Theta_e
331 330 328 327 327 327 326 325 325 325 325 324 325 324 324 323 323 323 324 324 323 324 324 325 324 324 324 324 324 324 324 325 325 325 325 324 325 324 324 326 329 333 336 337 337 337 338 339 339 339 338 337 337 337 337 336 336 336 336 336 336 336 336 336 337 337 338 338 338 338 338 338 337 337 337 337 337 337 337 338 338 338 338 338 338
332 332 331 329 329 329 329 327 325 325 324 324 324 324 323 323 323 323 323 323 322 324 322 323 324 324 323 324 324 325 324 324 325 324 325 325 325 325 323 324 326 329 332 335 337 337 337 338 339 340 339 339 338 338 338 338 337 337 336 336 336 336 336 336 337 338 338 338 338 338 338 338 338 338 338 337 337 338 337 337 337 338 338 338 338
333 332 331 331 331 331 330 330 328 327 327 326 324 324 324 323 324 323 324 323 323 323 323 323 323 324 324 324 324 324 324 324 324 324 324 324 325 325 326 323 324 327 330 334 336 337 336 337 338 339 339 339 339 338 338 338 338 338 337 337 337 337 336 337 337 338 338 338 338 338 338 338 338 338 338 338 338 338 338 338 337 337 338 339 339
334 333 332 331 331 331 331 330 329 330 330 328 326 324 324 324 324 324 325 324 325 325 324 322 322 323 323 323 324 324 324 324 324 324 324 324 324 325 325 326 323 324 326 330 335 336 336 337 337 338 339 339 340 339 338 337 338 338 338 338 338 337 337 337 337 338 338 338 339 338 338 338 338 338 338 338 338 338 338 338 338 338 338 338 339
335 334 332 331 331 331 330 330 330 330 331 330 329 327 325 324 326 326 326 326 325 325 325 325 324 324 324 324 324 322 323 323 323 323 324 324 325 325 325 326 326 324 323 325 328 332 335 337 337 337 338 339 340 339 339 338 338 338 338 338 339 339 338 338 338 338 338 338 338 338 339 338 338 338 337 337 337 337 337 338 338 338 338 337 337
334 333 333 331 330 330 330 330 329 329 329 329 328 328 326 326 326 326 324 325 325 325 324 323 323 323 324 324 324 325 323 322 322 323 324 324 325 325 325 325 326 326 326 323 323 326 332 334 336 337 338 338 339 339 339 338 338 338 338 339 339 338 339 339 338 338 339 339 339 339 338 338 338 338 338 338 337 337 337 337 337 337 337 337 337
334 334 333 331 329 328 329 330 330 330 327 327 328 327 326 326 326 325 325 325 325 325 325 324 324 324 324 324 324 325 324 324 323 323 324 324 324 325 325 325 326 326 327 326 323 323 326 330 335 336 337 337 338 338 338 337 337 337 338 339 339 339 339 339 339 339 339 339 339 339 338 338 338 338 338 338 338 337 337 337 337 337 337 337 337
335 335 333 332 330 329 328 329 329 329 328 328 329 327 327 327 327 326 324 324 325 325 325 325 325 324 324 324 324 324 324 323 323 323 324 324 324 325 325 326 326 327 323 327 326 325 323 326 331 335 335 336 337 337 338 337 336 336 337 338 338 338 339 338 338 339 339 339 339 339 339 338 337 337 338 338 338 338 338 337 337 337 337 337 337
335 334 333 331 329 330 328 329 329 329 328 328 328 329 328 328 326 326 326 324 325 325 325 325 325 325 325 324 324 324 324 324 324 325 325 324 324 325 326 326 326 320 326 327 326 326 323 322 326 328 330 331 333 335 337 337 336 335 335 336 337 337 337 338 337 338 338 338 337 337 337 337 338 338 338 337 337 337 338 338 338 337 337 337 337
335 334 334 333 332 331 331 331 330 329 328 328 328 329 329 328 326 326 326 325 324 324 324 325 325 326 326 325 325 324 324 324 325 322 324 324 325 325 326 327 327 327 327 327 327 326 326 324 322 322 323 324 327 332 335 335 336 336 335 336 336 336 336 336 336 337 337 337 337 337 337 336 336 336 337 337 337 337 337 337 337 337 337 337 337
336 335 335 334 333 333 333 333 332 331 330 329 329 329 329 328 327 326 327 327 326 325 325 325 325 325 325 325 325 325 325 325 324 324 324 325 325 324 327 326 327 327 327 327 327 326 326 325 324 321 322 320 323 327 330 333 333 334 335 336 337 337 337 336 336 335 335 335 336 336 336 336 336 336 336 336 336 337 337 337 337 337 337 337 337
335 335 335 334 333 333 333 333 332 332 330 329 329 329 328 327 327 327 326 326 326 326 326 325 324 324 322 324 325 325 324 324 324 324 324 325 325 325 325 326 326 326 326 327 326 326 326 325 322 324 322 321 320 322 324 328 328 331 333 335 336 337 337 337 337 336 335 335 335 335 334 335 335 335 335 335 335 336 336 336 336 337 337 337 337
336 336 335 333 334 334 333 333 333 332 331 330 330 330 330 329 328 327 325 325 325 326 326 325 323 321 323 323 323 324 323 322 323 323 324 325 325 325 325 325 325 325 326 326 326 326 326 325 325 324 323 323 321 319 320 324 323 327 331 332 334 335 336 337 337 337 335 335 335 334 334 334 334 334 334 334 334 334 335 336 336 336 336 336 336
334 335 335 335 334 333 333 333 332 332 331 331 331 327 329 329 328 326 327 325 324 326 325 324 320 318 317 317 318 320 322 322 322 323 324 324 324 324 325 325 325 326 326 326 326 326 326 325 325 324 323 323 323 322 320 319 320 323 328 330 332 334 335 336 336 336 334 334 334 334 333 333 333 333 333 334 334 334 334 334 334 335 335 336 336
333 333 334 334 334 333 333 333 333 332 331 330 330 329 329 329 328 327 325 326 325 326 325 325 320 321 320 317 314 312 314 318 322 323 324 324 324 324 325 325 326 326 326 325 325 325 325 325 324 323 323 323 323 323 321 319 319 321 324 327 330 332 334 335 335 336 334 333 334 333 333 333 333 333 333 333 334 334 334 334 334 334 335 335 335
334 333 334 334 334 333 333 333 333 332 331 330 330 329 329 329 329 328 327 324 324 324 326 326 324 321 314 314 313 313 312 312 315 319 324 324 324 324 325 325 326 325 325 324 324 323 324 324 324 323 323 323 323 322 322 320 321 322 322 322 324 329 332 333 334 334 333 332 333 332 332 332 332 333 333 333 334 334 334 335 334 335 334 335 335
326 330 330 331 333 333 333 333 332 333 332 331 330 330 330 330 330 328 327 325 323 324 325 325 325 325 320 314 313 312 312 312 315 313 319 321 322 324 324 324 325 324 323 323 322 322 321 321 322 323 323 323 323 323 322 322 322 320 321 321 325 328 330 332 333 333 333 332 332 332 331 331 332 332 332 333 333 333 334 334 334 334 335 335 335
315 315 317 318 322 327 331 332 332 331 331 331 331 330 330 330 330 329 328 327 325 324 323 324 324 324 324 323 319 314 312 313 313 308 315 317 319 320 320 321 321 321 320 321 321 321 321 322 321 321 322 323 323 322 322 322 321 322 321 322 327 329 331 331 333 333 333 332 331 331 331 331 331 332 332 332 332 333 333 333 333 334 335 335 335
310 311 311 311 313 315 318 324 330 331 329 330 330 330 330 330 330 329 329 327 326 323 323 323 323 323 324 324 323 321 320 314 309 310 310 309 314 315 317 319 319 319 319 319 319 320 321 321 321 322 321 322 322 322 323 323 324 323 325 326 328 329 331 331 332 332 333 332 331 331 331 330 331 331 332 332 332 333 333 333 333 333 333 334 334
306 307 307 307 309 311 314 317 320 326 329 330 330 331 331 331 330 330 330 329 327 325 324 324 322 322 323 322 322 322 322 321 319 316 313 311 314 318 319 319 320 320 321 321 321 321 322 322 322 322 322 322 323 323 323 323 322 323 323 326 329 331 332 332 332 332 332 332 331 331 330 330 330 331 331 331 331 331 331 332 332 333 334 334 334
304 305 305 304 307 309 310 311 313 317 320 326 329 330 330 329 329 328 328 328 328 327 326 324 324 323 322 320 321 321 321 321 321 320 315 312 313 314 315 316 317 318 319 319 320 320 320 320 321 321 321 321 322 322 322 322 322 322 322 325 328 330 331 332 332 332 332 331 331 330 330 330 329 330 330 330 330 331 331 331 332 332 332 333 333
302 304 303 303 304 306 306 307 309 312 314 318 320 323 327 328 329 329 329 328 329 327 326 326 326 325 324 323 319 318 319 318 318 318 318 317 313 313 314 313 313 314 316 319 320 321 321 321 321 321 321 321 321 321 322 322 322 322 320 318 321 324 327 332 332 332 332 331 331 331 330 330 330 330 329 330 329 330 330 330 330 331 331 331 332
301 303 303 302 303 305 305 305 306 307 308 309 312 316 320 324 326 327 327 327 327 328 326 325 325 325 325 324 322 321 318 316 317 318 317 315 314 314 316 316 315 314 317 319 319 320 321 321 320 320 321 320 320 320 321 321 315 317 313 313 316 321 326 329 330 331 330 331 330 330 330 330 331 330 330 330 329 329 329 329 329 330 330 331 332
296 300 301 300 301 303 303 303 303 304 305 307 308 310 313 317 322 325 326 326 327 324 324 324 324 324 324 324 324 324 323 321 320 320 318 317 316 315 315 317 317 317 319 318 319 320 320 320 321 321 321 321 320 320 320 320 319 311 312 312 314 319 326 327 330 331 331 331 331 330 330 330 330 330 330 330 330 329 329 329 330 330 330 331 331
294 295 298 299 298 300 301 301 301 303 304 305 306 308 309 311 314 317 321 324 325 325 324 323 323 322 323 325 324 324 323 324 324 322 321 321 319 316 317 318 315 316 318 317 317 317 320 320 320 320 319 319 320 320 320 320 319 313 307 313 311 313 317 321 327 329 330 331 331 331 331 331 331 331 331 330 330 330 330 329 329 329 329 329 330
292 293 296 296 296 298 299 299 300 301 302 303 304 305 306 307 308 311 315 320 323 324 324 324 324 323 324 323 323 322 323 324 324 323 322 320 318 318 317 317 317 316 318 317 317 316 315 318 320 320 320 319 320 320 320 320 320 310 306 313 316 314 319 323 325 328 329 330 330 331 331 331 331 332 331 331 330 330 330 329 329 329 329 329 329
292 293 295 294 295 296 296 297 298 299 300 301 302 303 304 304 305 307 310 313 316 319 321 322 322 322 323 323 323 323 323 324 323 323 323 322 320 319 318 314 314 315 314 316 316 315 316 316 318 318 319 319 319 319 320 320 315 310 307 314 317 313 315 318 320 324 327 329 330 330 330 330 331 332 331 331 330 330 330 329 329 328 328 328 328
291 292 293 293 293 293 294 296 297 297 298 298 299 300 301 302 303 305 306 310 310 311 315 318 320 321 321 322 322 323 325 324 324 323 322 322 321 321 319 317 313 310 313 313 314 314 316 315 315 318 318 318 319 320 315 316 321 310 305 317 317 316 312 313 317 319 321 324 327 329 329 329 330 331 331 331 329 329 328 329 328 328 327 327 327
291 292 292 292 292 292 292 294 295 296 296 297 297 298 299 299 300 301 302 304 306 306 308 311 314 318 320 320 320 321 322 323 323 323 323 322 322 322 322 319 318 313 310 310 312 312 314 314 312 312 317 318 318 319 318 318 315 315 319 317 318 318 314 313 315 316 316 319 323 325 327 328 328 329 330 330 330 330 329 329 328 327 327 327 328
290 291 291 291 291 291 291 292 293 294 295 296 296 297 297 297 298 298 300 302 302 304 306 308 310 313 315 317 318 319 320 320 321 322 321 321 321 321 320 320 320 315 314 310 311 314 313 314 316 315 312 316 317 318 318 318 311 314 319 319 319 319 313 312 313 315 317 318 319 321 324 326 327 328 328 329 330 329 329 330 330 330 330 329 329
288 289 289 289 290 290 291 291 292 292 294 294 295 296 296 296 296 296 298 299 300 301 303 304 306 307 309 310 314 316 318 319 319 319 319 319 319 319 320 320 318 317 316 314 309 314 316 313 313 315 316 315 317 317 319 320 316 315 318 318 318 311 308 312 309 313 316 318 318 319 322 324 326 328 328 329 329 329 330 330 330 330 330 330 329
287 287 287 288 288 289 290 291 291 291 291 292 293 294 295 295 295 295 296 297 298 298 299 301 303 304 305 306 308 310 314 316 317 318 318 318 318 318 318 318 318 318 317 315 312 312 316 315 316 315 316 315 316 316 316 317 317 308 316 317 318 308 313 316 309 308 310 311 312 313 313 315 319 322 325 326 327 328 328 329 329 329 329 329 327
286 286 286 286 287 288 289 290 290 290 290 290 291 292 292 292 293 294 296 297 296 296 296 296 298 300 301 303 304 307 309 310 313 315 316 316 316 316 315 315 316 316 316 314 312 312 314 315 315 316 317 317 316 315 315 315 314 315 312 316 316 317 317 317 317 309 308 309 311 312 313 312 313 316 319 320 322 324 324 324 324 324 323 321 320
285 285 285 286 286 287 288 288 289 289 289 289 290 290 290 290 291 293 295 294 293 292 292 293 295 297 297 298 300 302 304 306 308 310 312 313 313 313 313 313 313 313 314 313 312 311 310 312 312 315 314 315 314 312 313 313 314 312 313 314 315 315 317 317 317 317 309 308 309 311 311 311 311 311 311 311 313 315 315 316 314 313 313 314 314
284 284 284 285 285 286 287 287 288 288 288 288 289 289 289 289 289 291 292 290 289 288 289 290 292 294 294 295 296 299 302 302 304 306 308 309 311 312 312 312 311 312 312 312 311 309 308 308 309 309 310 311 313 314 312 313 313 313 312 313 313 315 316 316 317 317 310 308 309 309 310 310 310 310 310 310 309 310 310 310 310 310 310 311 311
282 283 283 284 284 285 285 286 286 287 287 288 288 288 288 288 289 289 288 287 287 288 288 288 289 291 292 293 294 296 297 298 300 302 304 306 307 308 309 310 311 311 311 312 311 310 309 307 308 308 308 308 308 311 312 312 312 311 312 312 312 312 313 314 314 314 311 309 309 309 309 309 309 309 310 309 310 310 309 309 309 308 309 309 309
281 281 282 283 283 284 285 285 285 285 286 287 287 287 287 288 288 288 287 286 287 287 287 288 289 289 290 290 292 293 295 295 295 297 300 301 303 304 304 306 307 308 309 309 309 309 308 307 307 308 307 308 308 308 309 308 308 308 307 308 310 312 312 312 312 314 308 307 307 307 307 307 308 308 309 309 309 309 309 308 307 306 306 307 307
279 280 281 281 283 283 284 284 284 285 285 286 286 286 287 287 287 287 286 286 286 286 286 287 287 287 288 289 290 292 293 293 294 295 296 297 296 297 297 298 300 303 304 305 306 305 305 305 304 304 302 303 303 303 304 306 306 306 306 306 306 308 309 310 311 312 313 313 313 314 308 306 306 306 307 308 308 308 307 307 306 305 304 305 305
278 279 280 281 282 282 283 283 283 284 284 284 285 285 286 286 286 286 286 286 286 286 286 286 286 287 287 287 288 290 291 293 294 294 294 293 294 293 293 293 294 295 296 298 301 302 303 304 304 304 304 303 302 304 303 302 304 304 304 303 304 306 305 305 307 310 309 311 308 306 307 308 306 307 308 306 306 306 306 305 305 304 303 303 304
277 278 279 280 281 282 282 282 283 283 283 283 284 285 285 285 285 286 286 285 285 285 285 286 286 286 286 287 288 289 291 292 291 291 291 291 292 292 292 292 292 292 292 294 296 298 299 300 301 302 302 302 301 301 302 300 300 303 304 303 303 304 304 303 305 307 306 306 307 308 305 304 304 304 304 304 304 304 304 303 302 301 301 303 304
277 277 278 279 280 280 281 281 282 282 283 283 284 284 284 284 285 285 285 285 285 285 285 285 285 286 286 286 287 288 289 289 288 288 289 290 291 291 292 292 292 291 290 291 291 292 294 296 297 299 299 300 300 299 298 297 300 302 302 302 302 303 304 303 304 305 305 304 303 305 307 307 307 307 307 307 308 305 304 302 303 302 302 304 305
276 277 277 278 278 279 279 280 280 282 282 283 284 285 285 284 284 285 285 285 285 284 284 284 285 285 286 286 287 287 287 287 288 288 290 290 290 290 290 291 291 290 290 290 290 291 292 292 293 295 295 296 298 299 299 298 299 298 298 299 299 299 298 298 298 300 301 299 302 303 305 304 303 303 304 305 307 304 307 308 308 307 305 305 305
275 276 276 276 277 278 278 279 279 280 281 282 283 285 286 286 285 284 284 284 285 284 284 284 283 284 285 286 287 287 287 287 288 288 289 289 290 290 290 291 291 291 290 290 290 290 290 291 293 294 294 294 296 297 296 296 296 296 296 295 295 295 295 296 298 295 290 298 295 295 300 298 299 301 301 302 303 304 306 308 305 303 304 305 305
274 275 275 275 276 277 277 278 278 278 279 282 283 284 285 285 285 284 284 284 284 284 284 283 284 284 284 285 286 287 287 287 286 287 288 289 289 290 290 289 289 290 291 291 290 290 290 289 289 291 293 293 294 295 295 295 294 291 290 292 290 292 293 294 293 295 293 295 291 293 296 299 295 297 300 302 303 301 304 304 304 304 304 304 304
274 274 274 275 275 276 276 276 276 277 277 280 282 283 284 285 285 284 283 284 284 283 284 283 283 284 284 284 284 285 286 285 286 287 287 287 288 288 288 288 288 289 290 291 291 291 291 290 289 289 290 292 293 294 295 293 294 293 293 293 293 294 294 295 295 296 294 294 294 292 295 298 297 292 298 301 302 298 302 301 302 303 304 304 304
273 273 273 274 274 275 275 275 275 276 276 279 282 283 283 284 284 284 283 283 284 284 283 283 283 283 283 283 283 283 284 285 285 284 284 284 284 285 285 286 287 288 288 289 289 288 289 289 289 289 291 293 291 293 294 295 295 294 294 294 294 294 293 293 294 294 293 295 293 293 294 296 298 292 295 298 300 297 298 300 302 302 303 303 303
272 272 272 273 273 274 274 275 275 275 276 279 281 282 282 283 284 285 283 283 283 283 283 283 283 283 283 283 282 282 283 283 282 283 282 282 283 284 284 285 286 286 287 287 287 288 289 290 291 291 292 293 294 295 295 296 295 296 296 295 295 295 294 293 292 293 293 294 294 293 290 294 296 294 292 295 296 296 296 298 300 301 301 301 301
272 272 272 273 273 273 274 274 274 274 275 279 280 281 282 283 284 282 280 280 280 280 280 281 281 281 281 281 281 281 281 281 282 284 283 283 282 282 283 284 285 285 286 287 288 289 288 289 290 290 291 291 292 292 293 294 295 296 294 293 292 291 290 289 288 291 291 292 293 292 290 291 293 291 290 292 293 294 294 293 296 299 300 300 301
270 271 271 272 273 273 273 274 273 273 274 277 279 280 281 283 282 280 279 279 278 278 278 279 279 280 280 280 280 280 280 280 282 283 284 283 281 281 281 282 283 284 284 286 287 288 289 289 289 290 291 292 293 293 294 294 293 293 292 289 288 290 288 287 288 289 290 292 290 293 291 290 292 292 290 292 292 291 292 293 292 296 298 299 299
270 270 271 271 272 273 273 273 273 273 273 276 278 280 281 282 281 278 278 278 277 277 277 278 278 278 278 281 281 280 280 280 282 283 283 282 280 280 280 280 280 281 282 284 285 286 288 288 288 289 290 290 290 291 291 292 292 291 290 287 289 290 287 288 287 288 290 290 289 292 290 289 291 290 288 289 290 288 290 291 291 291 295 297 298
269 270 271 271 271 272 272 272 273 273 273 275 278 279 280 281 280 278 277 276 275 275 276 276 277 277 278 279 279 279 279 280 282 282 282 281 279 279 280 280 279 279 281 283 283 283 284 284 285 286 286 286 287 287 287 289 289 289 289 289 289 288 286 287 287 287 286 287 290 292 289 287 289 287 289 287 287 289 289 289 289 288 285 287 289
Wind_Speed
3 2 2 3 3 3 3 4 4 4 4 5 5 4 5 5 4 4 5 5 5 6 6 6 6 6 6 6 6 6 7 7 7 7 7 7 7 8 12 13 14 15 16 19 21 22 22 23 24 23 22 22 22 21 21 21 21 21 22 22 22 22 22 20 19 18 18 18 18 18 19 19 19 18 19 20 20 20 19 20 20 21 20 20 19
4 4 3 3 3 4 4 4 4 4 3 4 4 4 4 3 3 4 4 4 4 6 5 5 5 5 6 7 7 8 7 7 7 7 7 7 7 8 13 15 16 16 17 17 19 22 22 22 22 22 23 23 22 22 22 22 22 21 21 21 22 22 21 21 19 19 18 18 18 18 19 19 19 19 19 20 20 20 20 20 21 20 20 21 21
5 4 4 5 5 5 5 4 5 4 4 5 3 3 3 3 4 4 5 5 5 5 6 6 6 7 6 7 7 7 7 7 7 7 7 7 7 7 9 15 17 18 18 17 19 20 22 22 23 22 23 23 23 23 22 22 22 22 22 21 21 21 22 21 20 19 19 18 19 19 19 19 19 19 19 19 19 20 21 21 21 19 19 19 20
5 5 5 5 5 5 6 6 6 5 5 5 6 3 2 2 2 3 4 4 5 4 4 4 4 6 5 6 7 7 7 7 7 7 7 7 7 7 7 8 13 16 18 18 18 20 20 22 22 23 23 23 23 23 23 23 23 22 22 23 23 23 24 23 21 19 20 21 21 20 20 20 20 20 19 19 19 19 20 20 21 20 19 18 18
5 6 5 5 5 6 6 6 6 5 6 7 6 4 2 2 4 4 5 5 5 6 5 6 6 6 6 6 6 6 6 6 7 6 7 7 8 8 8 8 8 11 14 16 19 20 19 21 22 22 23 23 23 23 23 23 24 24 24 25 24 23 25 24 22 20 19 18 18 18 18 19 20 20 20 20 20 20 20 20 20 20 20 19 19
5 5 5 5 5 6 5 5 5 5 6 6 6 5 4 3 4 5 6 6 6 5 5 7 7 6 6 6 6 8 7 7 6 7 7 7 7 7 7 7 7 8 8 13 17 18 19 21 21 22 22 23 23 23 24 24 24 25 25 24 24 25 26 25 23 21 20 20 19 19 20 19 18 18 19 20 20 20 21 21 21 20 20 20 20
5 5 5 5 5 5 6 6 5 5 6 5 5 5 5 6 6 6 6 6 6 5 6 7 7 7 6 5 7 7 7 9 9 8 9 8 7 7 7 7 7 7 8 7 10 16 19 19 19 21 22 22 23 23 23 24 24 24 26 25 25 25 26 26 24 22 20 20 20 21 20 20 19 19 20 20 20 20 20 21 21 21 21 21 21
3 4 4 4 5 5 5 5 5 6 6 5 5 5 5 5 6 6 6 6 6 7 6 8 8 9 8 8 9 9 9 7 6 6 7 7 8 9 9 9 9 8 9 8 8 8 15 18 18 19 20 21 21 22 22 23 24 24 25 25 26 25 25 24 24 22 21 20 19 19 19 20 21 21 20 19 18 19 19 20 20 21 21 21 21
3 3 3 4 5 5 5 3 3 4 4 5 5 5 5 5 5 6 6 6 6 7 7 7 8 8 8 9 10 9 9 8 9 9 7 8 8 8 9 10 10 11 9 9 8 7 10 15 16 18 19 19 19 20 22 22 23 23 23 24 25 25 25 25 25 22 20 21 21 21 19 17 16 17 19 20 20 19 19 19 20 20 21 21 21
3 3 4 4 4 4 4 4 4 4 4 3 5 4 5 6 6 5 6 7 7 8 9 8 7 7 8 8 8 7 8 8 9 9 9 10 10 10 10 9 9 9 9 8 8 8 7 9 14 16 18 17 18 17 21 21 22 22 23 23 23 24 23 24 24 24 23 21 19 18 19 20 20 19 18 18 18 18 19 19 19 20 20 21 21
4 4 4 4 4 4 5 5 4 5 5 5 5 5 5 6 7 7 6 7 8 8 8 7 8 8 9 9 8 9 8 8 7 8 9 10 11 11 9 10 9 8 8 8 8 7 7 7 6 6 9 16 17 17 17 20 21 21 22 22 23 22 23 22 22 21 21 21 21 20 19 18 19 20 20 19 19 19 19 19 20 20 20 21 21
4 4 5 5 5 5 5 5 5 5 6 6 6 5 6 5 7 7 8 7 7 8 7 8 8 9 10 11 11 13 14 13 12 11 10 10 10 8 9 9 8 8 7 7 7 7 7 7 7 7 6 10 16 17 17 16 18 19 20 21 21 22 22 22 22 22 21 19 19 20 22 21 21 22 23 22 22 21 22 22 22 22 21 21 21
4 5 5 5 5 5 6 5 5 5 6 7 7 8 7 6 7 7 9 9 8 7 8 7 8 9 9 11 11 11 15 14 15 13 12 11 9 9 9 8 7 7 8 8 8 7 7 7 7 7 7 6 9 15 17 17 17 16 20 21 21 21 21 21 22 21 21 19 18 20 21 21 22 21 22 23 22 23 22 22 23 24 24 23 24
5 4 5 5 5 4 4 5 5 6 6 6 7 7 7 7 5 6 6 9 9 7 6 4 8 8 8 7 9 9 13 14 14 13 13 10 10 10 9 9 10 9 7 7 8 8 8 7 7 7 6 6 7 6 8 11 13 15 18 19 20 20 21 21 21 21 21 19 19 20 20 21 21 22 22 22 22 22 22 22 22 23 24 24 24
5 4 4 4 4 5 6 5 5 6 6 7 7 8 8 8 8 8 7 6 8 6 7 8 8 4 5 6 8 5 3 5 9 12 10 10 9 9 10 10 11 8 7 7 7 7 7 7 7 7 6 7 7 7 7 7 9 13 15 16 18 21 21 21 21 21 21 19 18 20 21 21 21 21 22 22 22 21 22 21 21 22 23 24 23
5 4 5 5 6 6 5 5 6 5 6 7 7 7 7 7 8 8 8 10 7 5 7 8 8 5 5 7 5 4 8 3 3 5 10 11 11 11 9 9 9 7 6 7 7 6 6 6 7 7 7 7 7 7 7 6 10 14 16 17 18 19 20 21 21 20 21 19 19 20 20 20 21 22 22 22 22 21 22 21 21 21 22 23 23
16 14 9 7 6 5 5 6 6 6 5 7 7 7 7 7 8 8 9 9 10 7 6 9 10 9 7 5 5 3 4 2 7 5 3 4 6 8 8 8 7 8 7 7 5 5 5 4 6 6 7 7 7 6 6 6 6 6 9 14 16 17 19 21 21 21 20 20 19 19 19 20 20 21 21 21 21 22 21 21 21 21 21 22 22
14 15 17 17 16 14 10 6 6 6 5 7 7 7 7 8 8 7 8 9 9 8 8 5 9 10 12 11 5 4 6 5 7 6 6 3 5 4 4 5 6 5 5 5 5 5 5 6 5 6 6 7 7 7 6 7 6 7 7 7 13 16 18 20 21 21 20 19 19 18 18 19 19 20 21 21 21 21 21 20 20 20 19 21 22
14 15 16 15 13 13 15 14 9 5 5 6 7 8 8 8 8 8 8 7 7 9 9 7 4 8 9 10 11 10 6 5 5 5 9 5 3 4 4 6 5 4 4 4 4 4 5 6 6 7 7 7 7 7 7 7 8 9 11 12 13 14 16 18 20 20 20 19 18 18 19 19 19 20 19 20 20 20 21 20 20 21 21 20 20
14 15 16 16 14 14 14 13 14 14 10 7 7 7 7 7 8 8 8 8 9 9 9 8 8 6 7 10 10 9 9 9 8 9 9 10 13 7 6 9 9 7 5 5 6 6 7 7 7 8 7 8 7 7 7 7 7 7 8 13 14 14 15 16 17 19 19 19 18 18 18 19 19 19 19 19 20 19 19 19 19 18 19 21 22
16 15 16 17 15 15 15 15 14 14 13 12 11 10 10 10 10 9 9 8 8 8 8 8 8 9 6 6 6 7 7 8 8 8 9 9 12 11 14 4 5 6 7 5 5 5 5 5 6 6 6 6 6 7 7 7 7 7 7 12 14 16 15 15 16 17 18 18 18 18 18 18 19 19 19 18 18 17 17 17 18 19 20 20 20
15 14 15 16 15 15 15 16 14 13 12 12 14 14 13 12 12 11 10 10 7 7 8 8 7 8 7 7 6 5 6 5 6 7 9 11 11 9 8 11 13 7 4 7 9 9 9 9 8 7 8 8 7 7 7 8 7 7 9 14 14 14 13 13 15 16 17 17 17 17 17 18 17 17 17 17 16 16 16 16 18 20 20 19 19
12 12 12 15 15 14 14 15 13 13 13 14 13 12 13 14 13 12 12 12 10 9 9 9 8 9 9 8 8 8 8 7 7 6 8 7 7 8 8 9 10 14 7 7 8 9 9 9 8 7 8 8 7 7 7 7 8 9 13 14 13 12 11 11 14 16 17 17 17 17 17 17 17 17 17 17 17 16 16 16 16 17 18 19 20
12 12 13 17 15 14 15 16 16 16 16 14 14 14 13 12 12 12 10 10 10 9 8 9 9 9 9 8 9 8 8 8 8 7 7 8 8 10 9 7 9 10 7 6 7 8 8 9 8 9 10 9 8 8 7 7 7 13 11 12 13 13 12 13 14 16 17 17 17 17 17 17 17 17 17 17 17 17 16 17 17 17 18 19 19
14 12 13 16 14 14 14 14 13 14 14 15 16 16 14 14 12 13 13 12 10 9 9 9 10 9 9 9 9 8 9 8 7 7 7 8 9 11 8 6 10 10 7 5 6 4 7 8 9 9 9 8 7 7 7 7 7 11 14 9 14 13 13 13 14 16 16 17 17 17 17 17 17 18 17 17 18 18 18 17 16 16 16 17 18
13 13 13 14 13 13 13 14 14 14 14 14 14 14 14 13 13 13 13 11 11 10 9 9 9 10 8 8 8 8 8 8 8 8 9 9 10 10 10 8 8 9 7 7 6 6 4 6 8 8 8 8 8 8 7 8 8 12 15 9 10 14 14 14 13 13 15 16 16 16 16 17 17 18 17 17 18 18 18 18 18 17 16 16 17
11 11 12 13 13 12 14 13 13 14 13 13 12 12 13 13 13 13 12 11 12 12 11 10 9 9 9 8 9 9 8 8 8 9 9 10 10 10 10 13 12 10 10 7 8 9 10 5 7 6 8 9 8 7 8 7 9 12 13 9 8 12 14 15 15 15 13 15 16 16 16 17 17 18 18 17 17 17 17 18 18 18 17 17 17
10 10 11 12 12 13 13 12 12 13 14 14 13 12 12 13 12 12 14 11 13 15 12 12 11 11 10 9 8 9 9 9 9 9 9 9 9 8 9 11 12 13 8 9 7 9 6 7 4 8 8 8 7 7 8 8 7 11 13 7 7 7 12 14 14 16 16 15 16 16 17 17 17 18 18 18 16 16 16 16 16 16 16 16 16
10 10 11 12 12 13 13 13 13 13 13 13 14 13 13 12 11 12 13 13 13 14 13 12 13 13 10 9 8 9 8 8 8 9 9 9 9 9 10 12 10 12 12 10 10 8 7 6 6 4 7 8 7 6 7 7 8 9 6 6 7 6 9 14 15 16 16 16 14 16 17 17 18 18 18 18 18 18 17 17 17 18 17 17 18
10 10 11 12 12 13 12 12 13 13 12 12 13 13 13 12 13 12 12 13 13 12 12 12 13 11 12 11 10 9 8 8 8 8 8 8 9 9 9 10 9 11 11 13 12 6 7 5 6 8 4 6 5 5 5 7 10 10 6 7 7 7 12 15 16 16 16 16 16 15 15 17 17 18 18 18 19 19 18 19 19 20 19 20 20
11 11 12 12 11 11 12 13 12 13 12 12 13 12 12 11 12 12 13 13 13 13 12 12 12 13 13 14 12 10 9 8 8 8 7 7 8 8 9 8 9 10 11 10 13 7 6 9 6 5 6 6 6 6 6 7 6 7 7 7 7 11 15 13 16 16 16 17 17 16 15 15 17 18 18 18 19 19 19 19 21 22 22 22 23
11 12 12 12 12 12 11 11 12 12 13 13 13 12 11 11 12 12 12 13 13 13 13 13 12 13 15 15 14 12 12 11 10 9 9 9 9 9 9 9 9 10 10 11 12 15 6 8 10 7 9 6 5 7 6 6 8 11 7 7 9 12 10 8 13 16 16 16 16 16 16 16 16 17 19 19 19 20 20 19 20 20 21 21 18
13 13 13 14 13 12 12 11 11 12 13 13 11 11 11 13 12 13 12 12 12 12 13 15 14 14 14 14 14 14 13 13 11 10 9 9 9 8 8 8 9 8 9 10 12 13 8 6 8 8 8 9 8 7 9 8 6 6 8 7 7 7 8 8 8 13 16 16 16 17 17 17 17 17 17 17 18 18 18 18 18 18 17 17 16
13 13 14 13 13 14 12 12 12 12 11 11 12 11 12 13 13 10 10 12 13 14 14 14 14 12 14 15 14 14 13 14 13 12 10 10 9 9 9 8 9 9 8 10 11 12 14 6 7 7 7 7 10 5 7 8 8 5 7 8 6 6 7 7 8 8 15 16 17 18 18 18 18 17 17 16 15 16 16 16 16 16 16 17 17
12 12 13 14 14 13 13 12 12 12 12 11 10 11 11 12 13 12 11 12 13 14 15 14 15 14 14 14 14 13 11 13 13 12 11 11 10 10 11 9 9 9 9 8 9 11 12 10 5 6 6 6 8 10 7 7 6 6 7 7 7 6 6 7 8 7 12 15 16 17 18 18 18 18 18 17 16 15 16 16 16 16 16 17 17
13 12 13 13 13 13 13 13 12 12 12 11 11 10 11 12 13 13 12 12 12 13 13 14 14 14 15 15 14 14 14 15 14 13 11 11 11 11 11 9 9 10 10 9 10 11 11 13 8 8 6 7 6 7 7 7 8 6 7 8 6 6 7 7 8 7 9 15 17 17 17 17 17 18 18 17 16 16 16 16 17 17 17 17 17
13 13 12 11 12 12 12 13 14 13 13 12 12 11 10 10 10 13 13 13 12 13 13 13 14 14 15 15 15 14 13 14 14 13 12 14 12 12 12 11 10 10 9 9 9 8 10 12 10 7 5 6 6 6 6 7 7 8 6 7 8 10 9 8 7 8 12 15 16 16 15 17 17 17 18 17 17 17 16 16 17 17 17 17 17
14 13 13 12 11 12 11 11 12 13 13 12 12 12 11 10 10 12 13 13 13 13 14 13 13 13 14 15 16 15 14 12 12 12 13 12 13 13 14 14 13 12 12 11 10 11 11 11 10 10 5 7 7 6 5 5 7 8 9 9 7 8 9 9 9 7 6 5 5 8 12 13 15 17 17 17 17 17 17 17 17 17 17 17 17
14 13 13 13 12 11 12 12 12 12 12 11 11 12 11 11 12 13 13 14 14 13 13 14 13 13 14 14 15 15 15 13 13 12 13 14 12 13 13 13 13 13 13 12 11 11 11 12 12 11 10 7 7 10 7 5 7 8 9 8 9 8 7 7 10 8 5 7 9 12 10 9 11 11 14 17 18 18 17 17 18 18 17 16 16
13 13 14 14 13 11 11 12 12 12 12 11 11 10 10 11 12 12 13 14 15 14 14 13 13 14 15 14 14 15 15 14 14 14 13 14 13 14 13 11 11 13 13 13 13 12 12 10 10 11 9 9 8 7 6 4 7 9 9 8 11 11 11 7 8 11 7 5 7 7 8 10 10 12 13 14 15 15 15 16 17 17 17 16 16
11 12 13 13 13 13 12 11 12 11 11 10 9 10 12 14 13 14 15 14 14 13 13 12 12 13 14 14 14 14 15 16 21 20 20 16 12 13 12 11 11 11 11 11 12 12 12 12 13 11 11 10 9 8 7 7 9 11 7 7 9 10 10 9 9 9 8 7 6 7 9 7 8 8 7 6 7 9 12 16 14 17 17 17 17
12 12 12 12 13 13 13 12 11 10 10 9 12 24 22 16 15 13 13 13 13 12 12 11 10 11 12 12 13 17 17 17 18 18 16 17 19 17 15 15 14 13 13 13 12 10 11 12 12 12 13 13 12 10 9 7 7 5 7 7 9 8 7 7 7 7 5 4 4 9 9 5 5 7 8 8 6 5 6 7 8 10 12 16 17
14 13 12 13 12 12 12 12 12 11 10 11 22 23 23 26 18 14 14 15 13 13 12 11 11 11 10 10 10 12 13 13 12 15 18 20 18 19 21 20 17 14 12 14 13 11 13 11 11 12 12 14 14 10 9 7 5 4 4 4 5 4 6 6 11 6 3 0 3 4 8 3 3 6 7 7 6 4 6 8 11 11 13 15 16
13 13 14 13 13 13 12 12 12 12 11 17 25 24 24 25 22 17 14 13 12 12 12 11 10 9 10 9 9 9 10 12 16 16 16 17 18 16 16 17 18 19 17 14 12 12 12 14 14 13 13 13 13 10 8 8 7 6 4 5 3 5 6 7 5 7 2 4 3 5 9 7 3 4 8 10 8 5 8 12 15 13 12 12 11
12 13 13 14 14 13 12 13 13 13 11 19 23 25 25 26 26 22 13 13 14 13 12 11 11 11 10 9 9 9 10 16 14 11 13 14 16 19 19 19 20 20 19 20 19 16 14 16 12 13 14 12 13 11 8 3 4 9 7 7 6 7 6 8 8 7 6 3 6 5 9 12 4 2 7 11 9 2 6 11 13 13 15 17 17
12 13 14 14 13 13 13 13 14 13 13 17 25 25 25 26 26 22 14 14 13 13 12 12 10 10 9 9 10 10 9 10 10 14 15 17 17 17 15 14 13 14 15 16 18 21 19 16 17 18 16 13 12 12 14 12 12 12 12 12 8 10 11 14 11 9 5 2 3 2 10 14 12 3 7 12 10 5 7 12 15 14 15 16 16
12 13 13 13 12 12 13 13 13 14 13 23 25 26 26 26 27 22 12 11 11 11 11 12 11 10 10 10 10 11 11 11 11 16 16 17 17 15 15 15 13 12 12 11 11 11 11 12 14 15 14 13 13 12 13 13 14 12 13 14 10 10 9 6 7 7 9 4 4 2 12 14 11 6 6 11 10 10 7 11 15 14 14 15 17
11 11 11 12 12 13 13 13 14 14 14 24 25 26 27 25 26 11 10 10 10 11 11 11 10 11 10 11 11 12 13 13 15 23 21 18 17 17 17 16 14 12 11 10 14 14 15 15 14 14 14 16 19 16 15 14 11 8 7 8 7 7 8 8 10 9 10 3 6 6 9 14 12 9 6 8 9 12 9 7 10 10 11 13 14
11 11 12 13 13 13 15 14 15 15 15 20 24 25 25 26 18 8 11 10 11 10 9 10 9 9 9 11 12 12 13 12 17 23 24 24 17 17 17 16 14 13 12 10 12 15 18 20 22 23 24 25 25 24 22 22 16 11 9 9 11 9 9 9 11 10 11 4 4 7 9 12 12 9 5 9 9 9 10 9 6 10 15 16 17
14 13 12 13 13 12 13 15 14 15 16 19 24 24 25 24 18 12 10 10 11 12 12 12 11 11 12 18 16 13 13 13 20 24 26 22 17 16 17 18 18 16 14 12 9 9 14 19 20 21 20 19 18 18 18 16 13 7 6 11 11 9 9 7 12 11 11 8 5 7 7 11 11 6 6 7 9 6 9 8 7 7 10 11 12
13 12 12 12 14 13 13 14 18 16 14 17 22 22 25 23 18 12 11 11 13 13 14 14 13 11 12 13 20 19 17 18 25 25 27 22 17 16 16 17 17 17 14 12 11 11 11 11 10 12 14 17 16 13 12 16 17 14 10 10 8 10 10 9 10 9 10 11 5 12 11 8 9 6 6 4 6 7 7 7 9 5 2 3 6
Wind_Direction
276 270 287 283 282 277 267 253 238 239 218 231 220 232 235 229 227 229 226 227 227 228 225 228 228 227 227 232 234 239 242 243 241 245 246 246 245 247 250 252 246 240 235 238 243 248 250 253 255 256 255 255 253 253 254 253 253 253 254 254 253 253 252 251 251 251 249 248 247 246 246 247 247 246 247 249 252 253 253 254 254 252 250 247 242
226 250 256 258 258 271 284 285 271 261 258 249 232 220 234 265 271 263 259 253 246 237 220 227 232 229 227 230 231 232 230 230 233 234 237 238 239 242 245 246 247 245 242 239 240 245 250 252 252 252 253 255 255 254 253 253 253 253 254 254 253 251 251 250 248 248 249 248 248 246 245 244 244 245 245 245 246 247 249 252 254 253 251 250 250
217 217 222 225 227 235 243 252 270 276 283 280 275 240 227 226 245 258 257 256 256 251 235 238 241 242 238 237 238 234 235 237 239 239 239 239 238 240 242 241 242 243 242 240 239 241 246 248 248 249 252 253 255 255 255 254 254 254 254 253 253 252 252 251 248 249 250 251 250 248 245 244 243 243 243 243 242 242 245 248 250 251 252 252 250
221 228 226 219 219 221 226 224 224 229 241 263 267 263 246 282 317 312 305 301 291 292 286 271 263 250 246 240 238 234 235 235 239 242 244 244 243 244 242 243 243 242 242 242 238 239 241 243 246 248 249 251 252 253 254 255 254 253 254 254 254 253 252 253 253 246 242 243 244 244 243 243 242 242 242 241 241 241 241 242 245 247 248 249 249
219 232 234 232 225 223 229 221 213 210 218 225 233 239 256 316 306 312 302 300 293 287 289 282 275 273 277 273 267 260 248 238 238 241 242 243 246 247 249 249 252 251 245 241 241 241 240 241 244 246 247 248 249 251 252 254 254 253 252 252 252 253 253 253 254 256 255 251 250 249 248 245 244 242 242 242 242 241 241 241 241 242 243 245 247
204 223 233 239 234 232 231 233 225 217 220 213 215 202 201 221 250 259 264 270 270 268 271 275 272 271 263 267 269 265 262 254 242 240 240 245 248 248 247 246 245 247 250 241 238 238 239 243 242 243 245 246 247 249 252 254 253 252 251 251 252 252 253 253 253 250 249 248 247 248 250 251 247 244 242 242 242 241 241 241 241 240 239 240 241
199 208 229 242 245 240 235 232 228 232 225 210 189 189 201 217 208 226 239 251 260 262 266 270 270 264 262 267 265 267 256 248 241 239 237 241 244 250 253 251 249 248 248 249 240 236 237 238 237 240 242 243 245 247 249 253 255 254 252 252 252 253 253 253 253 254 251 249 247 247 247 248 249 249 248 246 244 242 242 241 241 240 239 239 239
245 217 231 243 251 253 243 226 226 228 220 213 201 205 205 221 221 212 228 240 243 249 242 249 250 253 252 257 261 261 265 265 257 248 242 239 239 243 245 247 247 247 245 245 244 236 231 235 236 239 241 243 244 246 247 253 255 254 253 253 252 253 254 253 252 252 255 254 252 252 249 246 245 246 248 246 245 244 243 242 242 241 240 239 239
250 247 246 253 264 269 272 265 256 234 225 223 213 201 205 222 225 215 214 235 237 251 249 246 249 248 245 242 243 247 250 254 258 259 258 249 244 241 240 240 240 239 239 241 240 242 229 226 234 237 240 243 244 245 248 251 254 255 253 251 252 252 251 253 254 254 254 253 252 255 258 257 254 250 247 247 247 246 245 244 243 242 241 240 240
260 253 246 249 253 261 275 279 284 278 261 237 232 224 223 220 232 215 213 225 238 243 252 256 262 266 265 260 261 256 253 245 242 240 241 247 247 243 240 242 239 235 234 234 236 235 237 231 228 233 236 237 240 242 245 249 252 254 253 252 252 251 252 252 251 252 254 258 258 254 251 253 255 255 254 251 249 248 248 246 245 243 242 241 241
241 243 249 256 266 269 270 268 268 271 273 267 254 240 233 223 225 232 229 228 231 234 247 256 259 258 260 261 264 264 270 263 255 245 238 240 241 242 243 242 238 236 233 231 231 233 234 235 228 225 234 235 237 238 240 244 249 251 252 252 252 252 252 253 254 252 250 250 251 255 258 255 250 250 252 252 251 251 249 249 248 246 244 243 241
278 252 234 228 229 245 258 260 258 255 254 258 264 265 255 244 236 232 239 242 237 241 245 255 261 263 263 264 259 259 260 260 260 255 252 246 244 241 241 242 238 238 234 232 231 231 227 226 226 220 218 227 231 236 238 240 243 247 251 252 253 253 254 254 254 254 254 253 252 252 254 255 255 255 254 254 254 253 252 251 251 249 247 245 243
249 264 270 255 242 236 236 246 246 245 252 252 250 252 253 247 242 228 235 244 244 235 240 241 259 264 256 260 264 252 250 245 245 243 243 244 244 245 248 249 243 235 231 232 234 229 227 226 225 224 221 219 228 234 235 237 239 240 244 247 250 251 253 254 255 256 256 256 256 257 258 258 259 259 258 257 257 255 254 254 254 254 254 251 251
282 262 241 238 255 257 258 256 252 252 247 245 249 255 256 255 250 249 221 235 250 233 231 198 246 252 277 289 272 255 235 232 235 239 236 236 234 236 237 239 239 233 227 224 228 226 226 226 226 226 228 232 233 223 232 238 240 238 240 243 248 251 253 255 256 258 259 258 258 259 259 260 261 262 262 261 260 259 259 258 257 256 256 257 255
291 294 301 284 260 253 242 237 242 247 253 253 247 245 242 246 244 245 256 237 248 238 229 204 252 261 260 288 289 313 326 242 234 239 233 230 228 228 229 233 235 228 224 222 225 223 223 218 221 224 229 233 235 230 221 225 226 231 234 238 243 248 253 256 258 260 261 261 260 260 261 261 261 261 261 262 261 261 260 259 258 258 258 256 256
313 309 296 281 275 273 274 262 255 241 244 252 254 251 246 247 248 246 241 256 246 245 212 220 227 241 269 225 258 297 311 303 324 269 215 219 214 226 223 229 230 229 222 224 225 221 221 216 223 223 229 232 231 232 231 218 223 228 232 235 239 243 249 253 258 260 263 262 261 262 262 262 262 261 261 262 261 260 259 258 258 258 258 258 258
360 353 333 307 291 286 270 267 265 259 255 259 257 255 254 247 242 240 236 243 255 255 231 215 223 211 238 298 293 280 242 308 351 284 267 213 229 226 221 222 222 224 221 230 230 225 228 231 228 227 231 230 232 232 233 238 238 229 229 233 234 237 242 248 254 259 262 264 263 262 262 261 262 263 263 263 263 264 265 265 262 261 259 256 254
9 6 7 4 355 340 317 288 272 270 261 257 259 264 257 257 254 251 245 237 246 253 255 215 220 219 222 234 256 280 319 321 355 296 335 315 285 257 233 223 220 219 225 231 233 241 240 241 240 239 233 231 231 232 231 238 238 237 236 228 224 231 239 244 250 256 261 265 264 264 263 262 262 262 263 263 263 264 265 267 267 267 267 267 265
11 7 6 2 357 352 351 340 319 284 275 270 264 258 255 247 246 242 245 240 228 247 251 255 230 228 235 239 246 251 263 307 277 323 311 322 358 4 344 329 321 292 252 238 238 243 247 242 243 241 240 234 232 229 230 232 231 230 230 228 224 225 234 241 246 252 259 265 267 266 265 265 265 266 267 269 270 268 266 264 263 262 262 261 260
11 9 8 2 354 356 352 348 345 340 331 313 297 286 280 274 261 259 250 239 232 231 239 234 237 244 207 234 241 248 251 252 247 260 275 291 292 295 279 299 304 287 263 256 253 244 248 246 247 244 241 239 233 230 229 228 228 233 236 235 233 236 237 239 243 247 253 259 265 266 266 266 267 267 267 267 265 266 267 267 266 266 266 264 262
10 8 9 2 355 354 354 352 348 346 344 337 329 317 303 292 283 272 264 256 247 246 243 236 225 232 224 232 242 247 249 242 244 230 239 260 271 281 291 267 251 273 280 268 267 264 261 260 251 248 248 246 233 225 222 219 220 220 227 228 232 237 240 243 248 251 254 256 260 264 265 265 265 265 266 268 270 272 273 273 272 270 266 267 267
2 2 6 2 354 354 356 351 348 346 343 340 340 336 329 316 302 289 279 272 264 263 256 253 246 249 234 225 203 238 253 250 234 239 245 234 256 264 268 292 294 266 254 284 285 284 283 279 275 269 262 260 255 243 236 230 229 232 234 231 231 233 237 242 248 253 255 256 256 255 257 259 262 263 264 265 267 268 269 270 271 270 269 264 261
356 353 3 359 353 353 354 349 345 347 345 345 341 339 336 330 320 309 298 288 280 268 258 248 248 250 247 242 239 217 218 236 241 233 238 247 257 252 254 252 257 283 257 227 238 242 242 246 248 250 253 254 248 237 230 226 223 225 223 225 231 234 238 239 246 252 257 257 257 256 254 254 256 258 259 260 260 260 262 266 269 271 272 273 269
2 357 2 357 353 350 350 348 348 347 346 342 343 342 336 332 329 322 311 299 292 287 282 276 263 254 249 244 242 242 241 228 224 230 236 251 249 261 257 260 262 257 273 259 243 243 241 240 244 249 249 252 246 238 235 229 225 220 220 225 228 234 243 249 253 255 256 257 255 254 253 252 252 252 253 255 256 256 258 262 265 269 271 271 273
356 353 355 355 349 348 349 347 343 343 340 340 340 339 339 336 331 327 322 313 302 293 291 286 282 276 265 255 253 248 245 247 250 241 238 245 245 262 257 244 266 276 277 265 270 241 232 234 238 240 244 238 235 236 233 229 227 226 222 229 226 231 238 245 248 252 253 253 252 252 251 248 248 250 249 250 252 254 255 259 263 268 271 274 273
349 350 346 346 346 344 342 339 338 336 336 336 334 335 337 335 330 327 323 320 315 303 292 286 282 279 279 281 271 260 254 248 248 250 255 255 255 257 275 264 252 271 270 275 265 272 260 237 236 239 244 245 243 241 245 238 237 230 222 219 228 230 235 241 244 250 257 260 261 260 257 255 253 252 251 250 249 250 252 257 260 261 265 268 271
347 339 341 343 339 339 338 335 335 335 334 334 334 333 334 333 331 327 328 328 325 322 313 302 294 289 279 269 269 269 267 259 252 249 246 246 250 256 262 276 273 260 265 249 268 252 267 256 241 246 241 241 235 229 228 227 226 223 221 221 231 229 229 234 242 248 250 255 260 261 260 258 255 255 255 253 250 249 250 252 255 257 258 262 266
339 335 339 341 340 338 334 332 333 334 335 334 334 335 333 332 328 330 330 332 329 329 326 320 312 303 292 285 283 274 269 267 259 255 253 253 254 258 255 255 264 276 265 272 262 265 255 262 255 240 244 243 239 230 228 227 232 230 225 224 225 233 231 234 240 247 252 254 256 259 262 261 260 261 262 260 257 254 251 250 250 251 254 258 261
336 335 335 337 338 338 334 335 335 333 332 334 335 335 334 330 328 331 330 330 329 327 326 325 323 318 307 292 281 278 272 268 266 261 259 258 255 255 255 260 263 270 276 269 263 266 265 238 262 256 232 242 242 240 245 240 236 228 223 215 221 227 231 232 238 244 248 251 251 255 259 260 260 259 260 262 261 259 254 249 248 249 249 251 256
334 333 334 333 334 336 335 334 334 333 332 332 333 334 335 332 332 331 328 327 325 322 323 323 321 321 319 315 303 289 278 268 262 256 253 251 251 247 248 251 250 260 266 271 273 252 271 260 252 269 253 251 248 248 244 250 233 217 216 219 225 230 235 236 238 239 242 248 254 255 254 257 258 258 259 261 264 265 262 259 256 257 255 257 261
335 335 334 332 332 331 332 333 334 334 333 334 334 333 334 331 333 330 329 329 326 325 325 326 325 323 320 316 314 305 300 289 281 275 265 262 255 248 248 244 243 248 257 263 275 248 207 260 253 246 261 245 246 248 246 245 238 223 227 228 231 233 235 237 236 239 242 248 255 262 264 266 268 267 266 267 268 269 270 268 270 269 268 267 268
335 335 333 332 331 328 328 331 332 334 335 335 334 332 330 332 329 328 327 328 329 329 328 329 326 322 320 317 317 317 316 309 297 287 279 268 263 261 255 251 252 246 246 254 254 268 218 239 258 250 256 255 244 256 246 249 252 247 236 229 234 238 238 241 240 238 242 244 248 252 255 259 260 262 265 266 268 270 272 274 276 276 275 275 273
335 334 333 332 331 328 327 329 331 333 334 334 333 329 333 330 328 324 323 329 332 333 332 327 327 323 320 317 316 315 317 312 308 301 292 282 277 270 262 259 256 249 247 252 261 270 262 218 242 249 247 259 264 235 249 249 241 248 250 247 234 233 235 234 234 234 235 237 240 243 246 249 253 256 257 260 263 266 269 270 271 273 275 276 276
332 331 330 329 329 327 328 329 329 329 329 331 331 332 331 329 325 324 326 339 341 333 329 324 324 325 321 318 316 315 315 309 308 308 308 303 294 284 278 270 265 263 249 255 258 263 270 251 244 248 246 233 256 225 225 248 254 238 244 253 252 229 229 229 232 236 227 231 233 237 240 243 246 248 251 253 255 258 261 263 264 265 267 268 268
328 328 327 327 325 325 325 326 328 328 328 327 327 329 328 327 322 325 339 343 334 325 324 322 323 322 319 316 314 314 315 310 308 306 307 305 303 297 290 281 275 272 268 258 268 270 271 268 240 256 251 240 236 253 243 235 242 219 236 246 241 242 238 230 234 234 229 225 228 231 234 237 240 243 245 247 248 250 252 255 258 260 260 262 263
324 323 324 322 322 323 325 326 327 326 326 323 324 325 325 324 324 331 335 329 323 321 320 320 320 320 319 318 317 319 321 317 315 313 311 307 306 304 299 297 291 286 277 272 263 268 272 277 261 251 246 256 257 261 261 256 259 245 232 257 262 243 243 238 232 235 228 228 234 234 232 235 237 238 241 242 244 246 248 249 252 253 254 255 256
324 322 318 318 317 320 323 326 326 326 325 325 324 323 321 320 326 328 324 320 320 318 317 316 317 319 318 314 314 314 315 313 313 312 316 312 312 308 303 302 299 297 293 290 286 280 280 275 277 262 258 259 257 256 252 255 269 276 271 252 254 263 260 247 240 244 251 239 233 234 233 236 238 239 240 240 241 244 248 249 250 252 253 254 255
323 321 318 318 317 315 317 319 321 320 321 323 322 321 319 323 327 323 320 317 318 317 316 316 317 316 314 314 313 313 310 306 306 308 311 325 332 325 326 325 324 323 318 307 295 290 285 281 280 284 273 270 287 272 267 265 265 273 278 277 281 268 262 268 261 256 245 241 250 248 246 244 245 243 242 242 241 242 244 247 250 252 253 255 257
321 319 318 316 316 316 318 320 320 318 318 318 318 316 318 324 322 317 317 318 317 316 314 314 313 314 313 312 310 310 307 305 307 316 326 322 318 315 313 312 313 312 309 303 304 299 290 283 278 274 277 260 246 267 266 245 249 246 254 274 272 266 269 259 272 269 247 254 249 244 242 235 232 232 237 238 239 240 241 245 248 250 252 254 256
322 321 321 320 318 319 321 319 318 318 317 316 315 314 319 320 316 315 316 317 317 315 314 313 316 314 312 309 310 310 311 322 327 326 323 318 313 304 304 307 310 307 303 302 299 295 291 290 282 282 267 270 264 255 264 268 263 263 250 243 256 263 262 251 246 263 262 229 256 270 262 262 262 254 255 253 248 244 244 248 250 251 250 252 254
322 322 319 318 321 320 317 315 316 316 314 313 313 319 318 315 315 315 315 312 310 308 310 308 306 308 311 311 309 309 309 316 319 315 308 304 303 305 307 307 309 302 297 296 293 290 286 282 281 278 280 277 267 263 260 244 234 242 245 233 247 248 257 260 259 254 247 244 253 259 263 246 254 257 250 253 248 233 239 240 247 247 246 249 251
322 320 319 322 320 317 318 319 315 314 314 312 312 314 315 314 314 313 310 309 308 307 307 305 303 305 303 303 302 300 304 305 298 294 300 314 314 306 304 305 300 294 292 293 291 287 285 282 275 277 274 270 268 262 260 249 252 264 266 255 253 257 266 262 265 253 250 235 248 259 259 242 226 258 260 256 257 210 227 240 237 236 238 239 244
324 321 323 321 319 319 317 315 316 314 312 310 312 313 313 313 313 309 309 309 307 305 304 305 308 307 300 297 300 300 297 298 303 310 307 300 293 290 285 282 283 282 282 286 285 286 289 283 283 279 271 271 270 273 270 283 275 280 269 286 288 285 271 277 272 299 344 102 261 284 276 260 201 247 270 260 252 244 248 253 251 238 239 240 241
323 322 321 319 319 318 317 317 314 313 310 313 315 315 315 314 314 312 308 306 304 303 301 301 301 298 296 297 300 308 315 321 315 305 297 292 292 298 312 316 314 306 295 285 284 283 279 281 282 276 278 271 277 277 283 288 297 318 322 318 294 290 294 280 264 252 259 36 40 325 291 275 193 245 275 272 268 236 245 253 257 260 258 262 259
318 319 318 320 318 317 318 316 316 315 313 314 315 316 317 317 317 316 309 305 303 298 297 298 297 296 297 304 311 312 312 307 303 310 319 321 319 313 308 308 303 297 296 297 296 292 288 277 262 265 264 278 283 285 288 303 328 299 301 291 287 281 270 270 264 274 285 30 26 339 290 284 284 181 264 275 271 227 267 269 271 274 274 275 272
318 318 317 315 315 314 316 316 314 313 311 311 316 318 319 318 317 315 304 303 300 300 301 298 295 298 302 310 310 309 309 314 327 324 319 313 309 305 302 295 290 285 284 283 282 284 284 286 284 276 272 266 263 272 278 284 285 282 284 281 286 282 279 271 276 275 266 6 296 309 282 278 271 205 234 268 274 260 251 263 268 265 266 266 265
318 317 315 313 311 310 311 313 313 311 308 314 319 320 319 319 315 318 327 327 325 325 318 312 312 315 317 316 313 310 313 314 313 312 310 308 305 303 299 295 288 285 283 282 286 288 282 273 273 278 281 278 274 267 264 262 257 260 266 271 272 269 271 285 289 268 271 210 197 187 264 273 276 263 237 268 284 278 249 267 265 264 262 264 268
311 308 307 307 308 309 310 310 311 309 310 316 319 319 319 318 322 342 338 333 333 328 326 326 323 321 317 314 312 309 307 306 309 311 311 311 308 305 303 299 294 286 278 276 278 280 280 283 284 283 284 284 283 284 285 288 293 293 297 296 286 274 275 274 270 272 267 197 177 187 254 266 275 273 263 261 271 274 267 245 262 264 263 265 269
311 310 310 311 310 309 310 311 312 310 309 312 316 317 318 319 331 340 336 333 331 324 318 315 311 309 311 312 310 307 305 304 309 311 314 315 309 306 304 303 302 298 292 289 275 274 277 279 280 284 282 279 279 281 282 282 282 278 275 279 271 271 270 274 270 269 266 259 189 204 239 263 265 268 273 261 260 269 275 269 244 251 255 260 262
311 309 309 307 307 307 308 308 309 310 308 310 315 316 316 319 338 340 338 332 327 327 320 318 316 312 311 311 311 308 307 306 309 312 316 316 309 306 304 304 304 301 297 296 289 278 271 273 276 278 286 295 297 297 297 296 297 301 261 260 270 276 262 248 262 266 279 271 235 180 236 246 267 261 267 274 282 247 256 265 258 237 245 254 262
308 308 307 307 306 306 306 305 307 308 308 311 314 316 317 320 333 342 338 334 331 328 324 319 316 314 311 312 312 311 309 310 312 314 314 314 309 306 303 300 299 299 299 301 300 299 292 288 281 283 280 281 284 283 280 283 284 284 272 274 281 267 259 253 256 268 277 268 237 183 214 240 247 270 253 308 278 272 244 256 267 258 219 237 266